Location: Peebles
(55.6412°N, 3.1714°W)
Time: 22:47:19
(UTC+00:00)

FENGYUN 1C DEB - Pass Details

Date: 10 February 2023
Orbit: 707 x 862 km, 98.5° (Epoch: 07 November)

Event Time Altitude Azimuth Distance (km) Brightness Sun altitude
Rises 20:46:20 0° 204° (SSW) 3,400 ? -31.0°
Reaches altitude 10° 20:49:11 10° 218° (SW) 2,474 ? -31.4°
Maximum altitude 20:53:33 24° 271° (W) 1,704 ? -32.0°
Drops below altitude 10° 20:57:56 10° 324° (NW) 2,475 ? -32.5°
Sets 21:00:48 0° 338° (NNW) 3,402 ? -32.9°
